Terminal Aerodrome Forecast
Issued by NWS Wilmington, OH

Current Version | Previous Version | Text Only | Print | Product List | Glossary Off
Versions: 1 2 3 4 5 6 7 8 9 10 11 12 13 14 15 16 17 18 19 20 21 22 23 24

000
FTUS41 KILN 261120
TAFCVG
TAF
KCVG 261120Z 2612/2718 18008KT P6SM FEW250
     FM261700 18012G20KT P6SM FEW250
     FM270300 16012KT P6SM FEW250 WS020/18045KT
     FM270900 18012KT P6SM VCSH BKN100 WS020/19045KT
     FM271200 19013G18KT 5SM -SHRA OVC028
     FM271700 22015G25KT P6SM OVC035=

USA.gov is the U.S. government's official web portal to all federal, state and local government web resources and services.